TimeEDT,TemperatureF,Dew PointF,Humidity,Sea Level PressureIn,VisibilityMPH,Wind Direction,Wind SpeedMPH,Gust SpeedMPH,PrecipitationIn,Events,Conditions,WindDirDegrees,DateUTC
12:15 AM,37.4,35.6,93,29.79,2.0,Calm,Calm,-,N/A,,Light Drizzle,0,2013-03-16 04:15:00
12:35 AM,37.4,35.6,93,29.78,2.0,Calm,Calm,-,N/A,Rain,Light Rain,0,2013-03-16 04:35:00
12:54 AM,37.4,35.6,93,29.78,2.0,NE,4.6,-,N/A,,Overcast,50,2013-03-16 04:54:00
1:15 AM,35.6,35.6,100,29.76,2.0,ENE,9.2,-,N/A,,Overcast,60,2013-03-16 05:15:00
1:35 AM,35.6,35.6,100,29.74,2.0,ENE,6.9,-,N/A,,Overcast,70,2013-03-16 05:35:00
1:54 AM,35.6,35.6,100,29.73,1.8,ENE,8.1,-,N/A,,Overcast,70,2013-03-16 05:54:00
2:15 AM,35.6,35.6,100,29.72,1.5,ENE,8.1,-,N/A,,Overcast,70,2013-03-16 06:15:00
2:35 AM,35.6,35.6,100,29.71,1.2,ENE,9.2,-,N/A,,Overcast,70,2013-03-16 06:35:00
2:55 AM,35.6,35.6,100,29.72,1.2,ENE,10.4,-,N/A,,Overcast,60,2013-03-16 06:55:00
3:15 AM,35.6,35.6,100,29.71,1.2,East,10.4,-,N/A,,Overcast,80,2013-03-16 07:15:00
3:34 AM,35.6,35.6,100,29.71,1.5,East,9.2,-,N/A,,Overcast,80,2013-03-16 07:34:00
3:55 AM,35.6,33.8,93,29.71,1.8,ENE,9.2,-,N/A,Snow,Light Snow,70,2013-03-16 07:55:00
4:15 AM,35.6,33.8,93,29.71,2.0,ENE,10.4,-,N/A,,Overcast,70,2013-03-16 08:15:00
4:34 AM,33.8,33.8,100,29.70,2.5,East,10.4,-,N/A,,Overcast,80,2013-03-16 08:34:00
4:55 AM,33.8,33.8,100,29.68,3.0,East,13.8,-,N/A,,Overcast,90,2013-03-16 08:55:00
5:14 AM,33.8,33.8,100,29.67,3.0,East,11.5,-,N/A,,Overcast,80,2013-03-16 09:14:00
5:35 AM,33.8,33.8,100,29.67,4.0,East,11.5,-,N/A,,Overcast,80,2013-03-16 09:35:00
5:55 AM,33.8,33.8,100,29.67,5.0,East,12.7,17.3,N/A,,Overcast,80,2013-03-16 09:55:00
6:14 AM,33.8,33.8,100,29.68,5.0,ENE,11.5,-,N/A,,Overcast,60,2013-03-16 10:14:00
6:35 AM,33.8,33.8,100,29.68,5.0,East,10.4,-,N/A,,Overcast,80,2013-03-16 10:35:00
6:55 AM,33.8,33.8,100,29.69,5.0,East,9.2,-,N/A,,Overcast,80,2013-03-16 10:55:00
7:14 AM,33.8,33.8,100,29.70,7.0,East,10.4,-,N/A,,Overcast,90,2013-03-16 11:14:00
7:35 AM,33.8,33.8,100,29.71,5.0,ENE,10.4,-,N/A,,Overcast,70,2013-03-16 11:35:00
7:55 AM,33.8,32.0,93,29.71,7.0,East,9.2,-,N/A,,Overcast,90,2013-03-16 11:55:00
8:14 AM,33.8,32.0,93,29.70,7.0,ENE,11.5,-,N/A,,Overcast,70,2013-03-16 12:14:00
8:35 AM,33.8,32.0,93,29.71,10.0,East,9.2,-,N/A,,Overcast,80,2013-03-16 12:35:00
8:55 AM,32.0,30.2,93,29.72,10.0,East,10.4,-,N/A,,Overcast,90,2013-03-16 12:55:00
9:14 AM,32.0,30.2,93,29.72,10.0,ENE,5.8,-,N/A,,Overcast,70,2013-03-16 13:14:00
9:35 AM,32.0,30.2,93,29.73,10.0,ENE,5.8,-,N/A,,Overcast,60,2013-03-16 13:35:00
9:55 AM,32.0,30.2,93,29.75,10.0,NNE,6.9,-,N/A,,Overcast,20,2013-03-16 13:55:00
10:14 AM,30.2,30.2,100,29.75,7.0,NNE,10.4,-,N/A,,Overcast,30,2013-03-16 14:14:00
10:35 AM,30.2,28.4,93,29.75,10.0,NE,10.4,-,N/A,,Overcast,40,2013-03-16 14:35:00
10:55 AM,30.2,28.4,93,29.76,7.0,NE,6.9,-,N/A,,Overcast,40,2013-03-16 14:55:00
11:14 AM,30.2,28.4,93,29.78,10.0,NE,9.2,-,N/A,,Overcast,40,2013-03-16 15:14:00
11:35 AM,30.2,28.4,93,29.79,10.0,NE,6.9,-,N/A,,Overcast,50,2013-03-16 15:35:00
11:54 AM,30.2,28.4,93,29.80,10.0,NNE,6.9,-,N/A,,Overcast,20,2013-03-16 15:54:00
12:15 PM,30.2,28.4,93,29.82,10.0,NE,11.5,-,N/A,,Overcast,40,2013-03-16 16:15:00
12:35 PM,30.2,28.4,93,29.83,10.0,NNE,9.2,-,N/A,,Overcast,30,2013-03-16 16:35:00
12:54 PM,30.2,28.4,93,29.84,7.0,NNE,10.4,-,N/A,,Overcast,30,2013-03-16 16:54:00
1:15 PM,30.2,28.4,93,29.85,10.0,North,12.7,-,N/A,,Overcast,360,2013-03-16 17:15:00
1:35 PM,28.4,28.4,100,29.86,7.0,NNE,10.4,16.1,N/A,,Overcast,20,2013-03-16 17:35:00
1:54 PM,28.4,26.6,93,29.87,10.0,North,9.2,16.1,N/A,,Overcast,10,2013-03-16 17:54:00
2:15 PM,28.4,26.6,93,29.87,10.0,North,10.4,-,N/A,,Overcast,360,2013-03-16 18:15:00
2:35 PM,28.4,26.6,93,29.88,10.0,North,8.1,-,N/A,,Overcast,10,2013-03-16 18:35:00
2:54 PM,28.4,26.6,93,29.89,10.0,NNE,10.4,-,N/A,,Overcast,20,2013-03-16 18:54:00
3:15 PM,30.2,26.6,86,29.89,10.0,North,9.2,-,N/A,,Overcast,10,2013-03-16 19:15:00
3:34 PM,30.2,26.6,86,29.90,10.0,North,8.1,-,N/A,,Overcast,360,2013-03-16 19:34:00
3:55 PM,30.2,26.6,86,29.90,10.0,NNE,10.4,-,N/A,,Overcast,20,2013-03-16 19:55:00
4:15 PM,30.2,26.6,86,29.91,10.0,North,10.4,-,N/A,,Overcast,350,2013-03-16 20:15:00
4:34 PM,30.2,26.6,86,29.91,10.0,North,8.1,-,N/A,,Overcast,10,2013-03-16 20:34:00
4:55 PM,30.2,26.6,86,29.92,10.0,North,9.2,-,N/A,,Overcast,350,2013-03-16 20:55:00
5:15 PM,30.2,26.6,86,29.93,10.0,NNW,5.8,-,N/A,,Overcast,330,2013-03-16 21:15:00
5:34 PM,30.2,26.6,86,29.94,10.0,NNW,6.9,-,N/A,,Overcast,340,2013-03-16 21:34:00
5:55 PM,30.2,26.6,86,29.95,10.0,North,6.9,-,N/A,,Overcast,350,2013-03-16 21:55:00
6:15 PM,30.2,26.6,86,29.95,10.0,North,8.1,-,N/A,,Overcast,10,2013-03-16 22:15:00
6:34 PM,30.2,26.6,86,29.96,10.0,NNW,5.8,-,N/A,,Overcast,340,2013-03-16 22:34:00
6:55 PM,30.2,24.8,80,29.97,10.0,North,6.9,-,N/A,,Overcast,360,2013-03-16 22:55:00
7:15 PM,30.2,24.8,80,29.97,10.0,NNE,5.8,-,N/A,,Overcast,20,2013-03-16 23:15:00
7:34 PM,30.2,24.8,80,29.97,10.0,Calm,Calm,-,N/A,,Overcast,0,2013-03-16 23:34:00
7:55 PM,30.2,24.8,80,29.97,10.0,NW,3.5,-,N/A,,Overcast,320,2013-03-16 23:55:00
8:14 PM,30.2,24.8,80,29.98,10.0,Calm,Calm,-,N/A,,Overcast,0,2013-03-17 00:14:00
8:34 PM,30.2,24.8,80,29.99,10.0,Calm,Calm,-,N/A,,Overcast,0,2013-03-17 00:34:00
8:55 PM,30.2,24.8,80,29.99,10.0,Calm,Calm,-,N/A,,Overcast,0,2013-03-17 00:55:00
9:14 PM,30.2,24.8,80,29.99,10.0,Calm,Calm,-,N/A,,Overcast,0,2013-03-17 01:14:00
9:34 PM,30.2,26.6,86,30.00,10.0,West,5.8,-,N/A,,Overcast,260,2013-03-17 01:34:00
9:55 PM,30.2,24.8,80,30.01,10.0,WNW,6.9,-,N/A,,Overcast,290,2013-03-17 01:55:00
10:14 PM,30.2,24.8,80,30.02,10.0,NW,9.2,-,N/A,,Overcast,310,2013-03-17 02:14:00
10:35 PM,28.4,23.0,80,30.03,10.0,WNW,10.4,-,N/A,,Overcast,300,2013-03-17 02:35:00
10:55 PM,28.4,23.0,80,30.04,10.0,NW,9.2,-,N/A,,Overcast,310,2013-03-17 02:55:00
11:14 PM,28.4,23.0,80,30.05,10.0,NW,9.2,16.1,N/A,,Mostly Cloudy,320,2013-03-17 03:14:00
11:35 PM,26.6,21.2,80,30.05,10.0,NW,9.2,-,N/A,,Scattered Clouds,320,2013-03-17 03:35:00
11:55 PM,26.6,21.2,80,30.06,10.0,NW,6.9,-,N/A,,Clear,320,2013-03-17 03:55:00